DW5978 Whyalla SA AU current weather conditions

sailwx.info

Wind from 308

Air temperature 10.0° C
Dewpoint 6.2° C

Last reported at 2016-Jun-25 11:40 UTC.
Time now 2016-Jun-25 12:25 UTC

Location: S 33°01' E 137°32'.
View on Google Maps.

See reports from other nearby stations

  
Tides and Currents Weather Stations Pressure Air Temp Water Temp Dewpoint Dewpoint Depression Visibility Wind Speed Wind Dir Waves Ship Positions
date/time (UTC)wind fromknots sea level pressurealtimeterstation pressurevisibilityair tempwater tempwave heightnotes
2016-Jun-25 11:40 308 10.0
2016-Jun-25 11:25 308 9.4
2016-Jun-25 11:10 308 0 gusting 1 9.4
2016-Jun-25 10:55 307 10.0
2016-Jun-25 10:40 307 10.6
2016-Jun-25 10:25 307 10.6
2016-Jun-25 10:10 307 10.0
2016-Jun-25 09:55 307 10.6
2016-Jun-25 09:40 308 10.6
2016-Jun-25 09:25 307 11.1
2016-Jun-25 09:10 304 1 gusting 2 11.1
2016-Jun-25 08:55 333 1 gusting 2 11.1
2016-Jun-25 08:40 336 1 gusting 1 11.1
2016-Jun-25 08:25 330 0 gusting 1 11.7
2016-Jun-25 08:10 330 11.7
2016-Jun-25 07:55 330 0 gusting 1 11.7
2016-Jun-25 07:40 330 0 gusting 2 12.2
2016-Jun-25 07:25 326 1 gusting 3 12.2
2016-Jun-25 07:10 357 1 gusting 3 12.8
2016-Jun-25 06:55 359 0 gusting 3 12.8
2016-Jun-25 06:40 345 4 gusting 6 12.8
2016-Jun-25 06:25 342 2 gusting 5 12.8
2016-Jun-25 06:10 341 3 gusting 6 12.8
2016-Jun-25 05:55 325 4 gusting 7 13.3
2016-Jun-25 05:40 323 3 gusting 9 13.3
2016-Jun-25 05:24 307 5 gusting 7 13.3
2016-Jun-25 05:09 318 2 gusting 7 13.3
2016-Jun-25 04:54 328 3 gusting 8 13.3
2016-Jun-25 04:39 339 3 gusting 5 13.3
2016-Jun-25 04:24 309 5 gusting 7 13.3
2016-Jun-25 04:09 319 3 gusting 6 13.3
2016-Jun-25 03:54 344 0 gusting 7 13.3
2016-Jun-25 03:39 291 1 gusting 4 13.3
2016-Jun-25 03:24 311 3 gusting 6 13.3
2016-Jun-25 03:09 311 4 gusting 7 13.3
2016-Jun-25 02:54 278 4 gusting 6 12.8
2016-Jun-25 02:39 297 2 gusting 6 12.8
2016-Jun-25 02:24 288 4 gusting 6 12.8
2016-Jun-25 02:09 322 3 gusting 6 13.3
2016-Jun-25 01:54 351 3 gusting 6 13.3
2016-Jun-25 01:39 350 1 gusting 6 13.3
2016-Jun-25 01:24 305 2 gusting 5 12.8
2016-Jun-25 01:08 333 1 gusting 6 12.2
2016-Jun-25 00:53 304 3 gusting 5 12.2
2016-Jun-25 00:38 333 1 gusting 4 11.7
2016-Jun-25 00:23 300 1 gusting 4 10.6
2016-Jun-25 00:08 318 2 gusting 4 10.0
2016-Jun-24 23:53 288 1 gusting 3 9.4
2016-Jun-24 23:38 302 1 gusting 3 8.3
2016-Jun-24 23:23 297 1 gusting 3 7.8
2016-Jun-24 23:08 302 2 gusting 4 7.2
2016-Jun-24 22:53 300 2 gusting 5 7.2
2016-Jun-24 22:38 293 0 gusting 2 6.1
2016-Jun-24 22:23 300 5.6
2016-Jun-24 22:08 304 1 gusting 2 5.0
2016-Jun-24 21:53 305 1 gusting 2 5.6
2016-Jun-24 21:38 300 0 gusting 0 6.1
2016-Jun-24 21:23 299 0 gusting 2 6.1
2016-Jun-24 21:08 302 1 gusting 3 6.7
2016-Jun-24 20:53 299 0 gusting 1 6.7
2016-Jun-24 20:38 315 0 gusting 2 7.2
2016-Jun-24 20:24 316 7.8
2016-Jun-24 20:08 316 0 gusting 3 8.3
2016-Jun-24 19:53 307 7.8
2016-Jun-24 19:38 307 7.8
2016-Jun-24 19:28 307 7.8
2016-Jun-24 19:21 285 7.2
2016-Jun-24 18:55 285 6.7
2016-Jun-24 18:40 285 6.7
2016-Jun-24 18:24 281 5.6
2016-Jun-24 18:12 283 0 gusting 2 6.1
2016-Jun-24 17:56 328 0 gusting 1 6.7
2016-Jun-24 17:40 328 5.6
2016-Jun-24 17:23 336 0 gusting 3 6.7
2016-Jun-24 17:08 297 6.7
2016-Jun-24 16:54 293 0 gusting 0 6.7
2016-Jun-24 16:37 293 6.7
2016-Jun-24 16:22 297 6.7
2016-Jun-24 16:07 297 6.7
2016-Jun-24 15:52 297 6.7
2016-Jun-24 15:37 297 6.7
2016-Jun-24 15:22 067 6.7
2016-Jun-24 15:09 067 7.2
2016-Jun-24 14:53 069 0 gusting 1 6.7
2016-Jun-24 14:37 072 0 gusting 2 6.7
2016-Jun-24 14:22 319 0 gusting 1 6.7
2016-Jun-24 14:07 319 0 gusting 2 6.1
2016-Jun-24 13:53 327 0 gusting 1 6.1
2016-Jun-24 13:37 328 0 gusting 2 6.1
2016-Jun-24 13:22 328 1 gusting 2 6.1
2016-Jun-24 13:07 328 0 gusting 1 6.1
2016-Jun-24 12:52 328 0 gusting 0 6.1
2016-Jun-24 12:37 328 6.7
2016-Jun-24 12:22 327 0 gusting 1 6.7
2016-Jun-24 12:07 330 0 gusting 2 6.7
2016-Jun-24 11:52 330 0 gusting 2 7.2
2016-Jun-24 11:37 322 0 gusting 1 7.2
2016-Jun-24 11:22 322 1 gusting 2 7.2
2016-Jun-24 11:07 277 0 gusting 1 7.8
2016-Jun-24 10:53 276 1 gusting 1 8.3
2016-Jun-24 10:37 277 0 gusting 1 8.9
2016-Jun-24 10:21 276 0 gusting 0 8.9
2016-Jun-24 10:06 276 0 gusting 3 9.4
2016-Jun-24 09:51 302 2 gusting 4 9.4
2016-Jun-24 09:36 307 10.6
2016-Jun-24 09:21 307 0 gusting 1 10.0
2016-Jun-24 09:06 246 0 gusting 1 10.6
2016-Jun-24 08:51 238 11.1
2016-Jun-24 08:37 238 0 gusting 2 11.1
2016-Jun-24 08:21 221 11.1
2016-Jun-24 08:06 221 0 gusting 1 11.7
2016-Jun-24 07:51 219 0 gusting 2 12.2
2016-Jun-24 07:36 222 1 gusting 3 12.8
2016-Jun-24 07:22 210 1 gusting 6 12.8
2016-Jun-24 07:06 212 4 gusting 7 12.8
2016-Jun-24 06:51 195 5 gusting 7 12.8
2016-Jun-24 06:37 212 2 gusting 8 12.8
2016-Jun-24 06:22 225 6 gusting 12 13.3
2016-Jun-24 06:06 165 6 gusting 13 13.9
2016-Jun-24 05:51 150 6 gusting 17 13.9
2016-Jun-24 05:36 238 6 gusting 11 13.9
2016-Jun-24 05:20 231 9 gusting 13 13.9
2016-Jun-24 05:06 217 6 gusting 13 13.9
2016-Jun-24 04:50 228 7 gusting 14 13.9
2016-Jun-24 04:36 204 6 gusting 13 13.9
2016-Jun-24 04:21 212 6 gusting 16 13.9
2016-Jun-24 04:05 257 6 gusting 15 13.9
2016-Jun-24 03:50 193 5 gusting 13 13.9
2016-Jun-24 03:35 240 6 gusting 13 13.3
2016-Jun-24 03:20 217 8 gusting 13 13.3
2016-Jun-24 03:05 207 8 gusting 15 13.9
2016-Jun-24 02:52 229 9 gusting 14 13.9
2016-Jun-24 02:38 240 7 gusting 12 13.3
2016-Jun-24 02:20 238 7 gusting 17 13.3
2016-Jun-24 02:05 193 7 gusting 13 12.8
2016-Jun-24 01:52 240 7 gusting 13 12.2
2016-Jun-24 01:35 235 9 gusting 14 12.2
2016-Jun-24 01:20 214 6 gusting 12 11.7
2016-Jun-24 01:04 249 6 gusting 11 11.7
2016-Jun-24 00:49 260 6 gusting 11 10.6
2016-Jun-24 00:35 274 6 gusting 11 10.6
2016-Jun-24 00:21 319 6 gusting 12 10.0
2016-Jun-24 00:05 288 6 gusting 9 10.0
2016-Jun-23 23:51 285 4 gusting 6 9.4
2016-Jun-23 23:36 274 2 gusting 5 8.9
2016-Jun-23 23:22 300 4 gusting 6 8.3
2016-Jun-23 23:08 293 4 gusting 6 7.8
2016-Jun-23 22:57 311 3 gusting 6 7.2
2016-Jun-23 22:40 302 3 gusting 6 6.7
2016-Jun-23 22:25 314 4 gusting 8 6.1
2016-Jun-23 22:08 330 5 gusting 8 6.1
2016-Jun-23 21:49 327 4 gusting 6 6.1
2016-Jun-23 21:34 316 4 gusting 7 5.6
2016-Jun-23 21:19 333 3 gusting 5 5.6
2016-Jun-23 21:04 311 2 gusting 3 5.6
2016-Jun-23 20:49 305 2 gusting 3 5.6
2016-Jun-23 20:34 302 2 gusting 5 6.1
2016-Jun-23 20:20 311 3 gusting 6 6.1
2016-Jun-23 20:04 311 3 gusting 6 6.7
2016-Jun-23 19:49 316 4 gusting 6 6.7
2016-Jun-23 19:36 300 4 gusting 9 6.7
2016-Jun-23 19:18 302 5 gusting 7 7.2
2016-Jun-23 19:03 297 5 gusting 9 7.2
2016-Jun-23 18:48 309 4 gusting 6 7.2
2016-Jun-23 18:34 311 4 gusting 6 7.2
2016-Jun-23 18:19 304 5 gusting 9 7.2
2016-Jun-23 18:03 297 5 gusting 9 7.2
2016-Jun-23 17:49 300 5 gusting 10 7.2
2016-Jun-23 17:34 297 5 gusting 10 7.2
2016-Jun-23 17:19 276 7 gusting 11 7.2
2016-Jun-23 17:03 300 5 gusting 10 7.2
2016-Jun-23 16:48 304 6 gusting 9 7.8
2016-Jun-23 16:33 320 6 gusting 10 7.8
2016-Jun-23 16:18 304 6 gusting 12 7.8
2016-Jun-23 16:03 305 6 gusting 10 7.2
2016-Jun-23 15:48 316 6 gusting 8 7.2
2016-Jun-23 15:33 335 6 gusting 11 7.2
2016-Jun-23 15:19 309 5 gusting 9 7.2
2016-Jun-23 15:03 323 4 gusting 8 7.2
2016-Jun-23 14:50 323 6 gusting 9 7.2
2016-Jun-23 14:33 293 5 gusting 9 7.2
2016-Jun-23 14:18 304 6 gusting 11 7.2
2016-Jun-23 14:03 307 5 gusting 8 7.2
2016-Jun-23 13:48 293 3 gusting 6 7.8
2016-Jun-23 13:32 319 4 gusting 6 7.8
2016-Jun-23 13:17 305 5 gusting 7 7.8
2016-Jun-23 13:03 331 3 gusting 6 7.2
2016-Jun-23 12:47 315 3 gusting 6 7.2
2016-Jun-23 12:33 319 2 gusting 4 7.2
2016-Jun-23 12:17 316 3 gusting 6 7.8
2016-Jun-23 12:02 311 1 gusting 3 7.8